FW1340 Weather Reports


time (UTC)temp
C
wind
direction
speed
KPH
gust
KPH
rain 1hr
cm
rain 24hr
cm
rain mn
cm
humidity
%
barometer
mb
20260506034527 16 239 0.0 0.0 0.00 0.46 0.36 85 1016.5
20260506033030 16 245 0.0 0.0 0.00 0.46 0.36 83 1016.3
20260506031527 16 225 0.0 0.0 0.00 0.46 0.36 83 1016.2
20260506030025 16 225 0.0 0.0 0.00 0.46 0.36 81 1016.1
20260506024523 17 228 0.0 0.0 0.00 0.46 0.36 81 1015.8
20260506023022 17 228 0.0 0.0 0.00 0.46 0.36 79 1015.7
20260506021522 17 240 0.0 0.0 0.00 0.46 0.36 78 1015.6
20260506020024 17 238 0.0 0.0 0.00 0.46 0.36 77 1015.5
20260506014525 17 274 0.0 0.0 0.00 0.46 0.36 77 1015.5
20260506013026 17 232 0.0 0.0 0.00 0.46 0.36 75 1015.4
20260506011520 18 243 0.0 0.0 0.00 0.46 0.36 74 1015.4
20260506010025 18 234 0.0 0.0 0.00 0.46 0.36 74 1015.3
20260506004528 18 264 0.0 0.0 0.00 0.46 0.36 74 1015.3
20260506003017 19 273 0.0 0.0 0.00 0.46 0.36 72 1015.3
20260506001516 19 245 0.0 0.0 0.00 0.46 0.36 72 1015.2
20260506000019 19 266 0.0 0.0 0.00 0.46 0.36 73 1015.2
20260505234517 19 267 0.0 0.0 0.00 0.46 0.36 72 1015.1
20260505233012 19 271 0.0 0.0 0.00 0.46 0.36 74 1015.1
20260505231510 18 265 0.0 0.0 0.00 0.46 0.36 74 1015.1
20260505230009 17 288 0.0 0.0 0.00 0.46 0.36 76 1015.2
20260505224507 17 231 0.0 0.0 0.00 0.46 0.36 76 1015.3
20260505223103 17 197 0.0 0.0 0.00 0.46 0.36 76 1015.5
20260505221502 17 214 0.0 0.0 0.00 0.46 0.36 77 1015.6
20260505220101 17 267 0.0 0.0 0.00 0.46 0.36 79 1015.7
20260505214607 17 217 0.0 0.0 0.00 0.46 0.36 82 1015.7
20260505213059 16 211 0.0 0.0 0.00 0.46 0.36 83 1015.8
20260505211557 15 256 0.0 0.0 0.00 0.46 0.36 85 1016.0
20260505210052 15 242 0.0 0.0 0.03 0.46 0.36 85 1015.9
20260505204547 15 269 0.0 0.0 0.03 0.46 0.36 86 1016.0
20260505203147 15 263 0.0 0.0 0.03 0.46 0.36 86 1016.0
20260505201553 15 266 0.0 0.0 0.03 0.46 0.36 85 1016.0
20260505200045 15 226 0.0 0.0 0.00 0.43 0.33 83 1016.1
20260505194543 15 228 0.0 0.0 0.00 0.43 0.33 84 1016.2
20260505193047 15 254 0.0 0.0 0.00 0.43 0.33 85 1016.2
20260505191549 15 272 0.0 0.0 0.00 0.43 0.33 85 1016.2
20260505190039 15 246 0.0 0.0 0.00 0.43 0.33 86 1016.1
20260505184533 14 241 0.0 0.0 0.00 0.43 0.33 86 1016.0
20260505183045 14 298 0.0 0.0 0.00 0.43 0.33 88 1016.1
20260505181531 14 206 0.0 0.0 0.00 0.43 0.33 88 1016.0
20260505180034 14 221 0.0 0.0 0.00 0.43 0.33 89 1015.7
20260505174530 13 224 0.0 0.0 0.00 0.43 0.33 90 1015.7
20260505173028 13 217 0.0 0.0 0.00 0.43 0.33 91 1015.7
20260505171527 13 232 0.0 0.0 0.00 0.43 0.33 92 1015.7
20260505170016 12 213 0.0 0.0 0.00 0.43 0.33 93 1015.7
20260505164527 12 203 0.0 0.0 0.00 0.43 0.33 93 1015.7
20260505163013 12 225 0.0 0.0 0.00 0.43 0.33 94 1015.6
20260505161509 12 209 0.0 0.0 0.00 0.43 0.33 95 1015.6
20260505153004 12 167 0.0 0.0 0.00 0.43 0.33 96 1015.5
20260505151502 12 166 0.0 0.0 0.00 0.43 0.33 96 1015.4
20260505150115 11 146 0.0 0.0 0.00 0.43 0.33 96 1015.2
20260505140105 11 163 0.0 0.0 0.00 0.43 0.33 96 1014.9
20260505124546 11 161 0.0 0.0 0.00 0.43 0.33 95 1014.6
20260505123105 11 196 0.0 0.0 0.00 0.43 0.33 96 1014.5
20260505121544 11 209 0.0 0.0 0.00 0.43 0.33 96 1014.7
20260505120050 11 198 0.0 0.0 0.00 0.43 0.33 96 1014.6
20260505114552 11 185 0.0 0.0 0.00 0.43 0.33 95 1014.6
20260505113049 11 211 0.0 0.0 0.00 0.43 0.33 95 1014.6
20260505111540 11 232 0.0 0.0 0.05 0.43 0.33 95 1014.6
20260505101539 11 232 0.0 0.0 0.13 0.38 0.28 95 1014.9
20260505100034 11 220 0.0 0.0 0.18 0.38 0.28 95 1014.9
20260505094533 11 202 0.0 0.0 0.20 0.38 0.28 94 1015.0
20260505093040 11 194 0.0 0.0 0.18 0.33 0.23 94 1015.0
20260505091539 11 167 0.0 0.0 0.13 0.25 0.15 94 1015.2
20260505090043 11 174 0.0 0.0 0.08 0.20 0.10 94 1015.3
20260505084527 11 179 0.0 0.0 0.05 0.18 0.08 93 1015.4
20260505083027 11 186 0.0 0.0 0.05 0.15 0.05 93 1015.4
20260505081535 11 186 0.0 0.0 0.03 0.13 0.03 93 1015.4
20260505080043 11 186 0.0 0.0 0.03 0.13 0.03 93 1015.5
20260505074521 11 180 0.0 0.0 0.03 0.13 0.03 93 1015.8
20260505073020 11 163 0.0 0.0 0.03 0.10 0.00 92 1015.8
20260505071518 11 167 0.0 0.0 0.05 0.10 0.00 92 1015.7
20260505070021 11 271 0.0 0.0 0.08 0.10 0.00 92 1015.8
20260505064514 12 270 0.0 0.0 0.08 0.10 0.10 91 1015.6
20260505063014 12 258 0.0 0.0 0.05 0.08 0.08 91 1015.2
20260505061516 12 238 0.0 0.0 0.03 0.05 0.05 90 1015.2
20260505060017 12 268 0.0 0.0 0.00 0.03 0.03 90 1015.3
20260505054511 12 268 0.0 0.0 0.00 0.03 0.03 89 1015.4
20260505053016 12 268 0.0 0.0 0.00 0.03 0.03 89 1015.3
20260505051510 12 268 0.0 0.0 0.00 0.03 0.03 89 1015.5
20260505041507 13 319 0.0 0.0 0.03 0.03 0.03 84 1015.6
20260505040009 13 257 0.0 0.0 0.00 0.00 0.00 81 1015.4